| time (UTC) | temp F | wind direction | speed MPH | gust MPH | rain 1hr in | rain 24hr in | rain mn in | humidity % | barometer mb |
| 20260508190105 | 61 | 321 | 4.0 | 12.0 | 0.00 | 0.00 | 0.00 | 35 | 1008.7 |
| 20260508185556 | 61 | 249 | 3.0 | 10.0 | 0.00 | 0.00 | 0.00 | 35 | 1008.8 |
| 20260508185056 | 60 | 241 | 3.0 | 8.0 | 0.00 | 0.00 | 0.00 | 35 | 1008.7 |
| 20260508184635 | 60 | 298 | 1.0 | 8.0 | 0.00 | 0.00 | 0.00 | 37 | 1008.8 |
| 20260508184059 | 60 | 223 | 3.0 | 12.0 | 0.00 | 0.00 | 0.00 | 37 | 1008.8 |
| 20260508183559 | 60 | 238 | 3.0 | 12.0 | 0.00 | 0.00 | 0.00 | 35 | 1008.8 |
| 20260508183114 | 60 | 324 | 3.0 | 10.0 | 0.00 | 0.00 | 0.00 | 35 | 1008.8 |
| 20260508182557 | 60 | 252 | 3.0 | 10.0 | 0.00 | 0.00 | 0.00 | 35 | 1008.8 |
| 20260508182056 | 60 | 240 | 2.0 | 11.0 | 0.00 | 0.00 | 0.00 | 35 | 1008.9 |
| 20260508181601 | 60 | 348 | 4.0 | 11.0 | 0.00 | 0.00 | 0.00 | 34 | 1008.9 |
| 20260508181056 | 61 | 238 | 3.0 | 12.0 | 0.00 | 0.00 | 0.00 | 34 | 1008.7 |
| 20260508180556 | 61 | 306 | 4.0 | 12.0 | 0.00 | 0.00 | 0.00 | 32 | 1008.8 |
| 20260508175559 | 61 | 252 | 4.0 | 10.0 | 0.00 | 0.00 | 0.00 | 32 | 1008.8 |
| 20260508175059 | 62 | 259 | 3.0 | 13.0 | 0.00 | 0.00 | 0.00 | 32 | 1008.8 |
| 20260508174617 | 62 | 194 | 4.0 | 13.0 | 0.00 | 0.00 | 0.00 | 31 | 1008.8 |
| 20260508174058 | 62 | 216 | 3.0 | 8.0 | 0.00 | 0.00 | 0.00 | 35 | 1008.9 |
| 20260508173556 | 61 | 0 | 1.0 | 10.0 | 0.00 | 0.00 | 0.00 | 34 | 1008.8 |
| 20260508173115 | 62 | 302 | 3.0 | 10.0 | 0.00 | 0.00 | 0.00 | 34 | 1008.8 |
| 20260508172559 | 62 | 0 | 2.0 | 8.0 | 0.00 | 0.00 | 0.00 | 35 | 1008.8 |
| 20260508172100 | 62 | 236 | 3.0 | 18.0 | 0.00 | 0.00 | 0.00 | 32 | 1009.0 |
| 20260508171628 | 62 | 169 | 4.0 | 18.0 | 0.00 | 0.00 | 0.00 | 34 | 1009.0 |
| 20260508171059 | 62 | 313 | 4.0 | 11.0 | 0.00 | 0.00 | 0.00 | 32 | 1009.0 |
| 20260508170558 | 61 | 294 | 2.0 | 10.0 | 0.00 | 0.00 | 0.00 | 36 | 1009.0 |
| 20260508170059 | 61 | 257 | 3.0 | 10.0 | 0.00 | 0.00 | 0.00 | 34 | 1009.1 |
| 20260508165558 | 61 | 315 | 3.0 | 10.0 | 0.00 | 0.00 | 0.00 | 34 | 1009.0 |
| 20260508165058 | 60 | 223 | 3.0 | 10.0 | 0.00 | 0.00 | 0.00 | 36 | 1009.2 |
| 20260508164606 | 61 | 227 | 5.0 | 10.0 | 0.00 | 0.00 | 0.00 | 31 | 1009.2 |
| 20260508164058 | 63 | 235 | 3.0 | 10.0 | 0.00 | 0.00 | 0.00 | 36 | 1009.2 |
| 20260508163558 | 62 | 183 | 3.0 | 10.0 | 0.00 | 0.00 | 0.00 | 32 | 1009.2 |
| 20260508163100 | 61 | 318 | 3.0 | 10.0 | 0.00 | 0.00 | 0.00 | 35 | 1009.2 |
| 20260508162558 | 63 | 279 | 2.0 | 11.0 | 0.00 | 0.00 | 0.00 | 37 | 1009.3 |
| 20260508162059 | 60 | 252 | 1.0 | 11.0 | 0.00 | 0.00 | 0.00 | 33 | 1009.3 |
| 20260508161610 | 61 | 274 | 2.0 | 11.0 | 0.00 | 0.00 | 0.00 | 37 | 1009.4 |
| 20260508161059 | 60 | 175 | 3.0 | 10.0 | 0.00 | 0.00 | 0.00 | 36 | 1009.5 |
| 20260508160600 | 60 | 268 | 3.0 | 11.0 | 0.00 | 0.00 | 0.00 | 33 | 1009.5 |
| 20260508160103 | 60 | 252 | 4.0 | 11.0 | 0.00 | 0.00 | 0.00 | 35 | 1009.7 |
| 20260508155558 | 60 | 290 | 3.0 | 8.0 | 0.00 | 0.00 | 0.00 | 34 | 1009.7 |
| 20260508155100 | 61 | 281 | 2.0 | 9.0 | 0.00 | 0.00 | 0.00 | 36 | 1009.9 |
| 20260508154559 | 60 | 104 | 1.0 | 10.0 | 0.00 | 0.00 | 0.00 | 34 | 1009.8 |
| 20260508154059 | 60 | 9 | 5.0 | 10.0 | 0.00 | 0.00 | 0.00 | 35 | 1010.0 |
| 20260508153559 | 60 | 269 | 3.0 | 10.0 | 0.00 | 0.00 | 0.00 | 36 | 1010.0 |
| 20260508153109 | 59 | 331 | 2.0 | 8.0 | 0.00 | 0.00 | 0.00 | 35 | 1010.0 |
| 20260508152558 | 58 | 232 | 2.0 | 8.0 | 0.00 | 0.00 | 0.00 | 35 | 1010.1 |
| 20260508152058 | 60 | 217 | 2.0 | 8.0 | 0.00 | 0.00 | 0.00 | 34 | 1010.0 |
| 20260508151606 | 59 | 191 | 3.0 | 8.0 | 0.00 | 0.00 | 0.00 | 36 | 1010.1 |
| 20260508151101 | 59 | 273 | 2.0 | 8.0 | 0.00 | 0.00 | 0.00 | 35 | 1010.1 |
| 20260508150603 | 60 | 269 | 1.0 | 6.0 | 0.00 | 0.00 | 0.00 | 37 | 1010.1 |
| 20260508150059 | 59 | 339 | 1.0 | 6.0 | 0.00 | 0.00 | 0.00 | 34 | 1010.1 |
| 20260508145600 | 59 | 264 | 3.0 | 6.0 | 0.00 | 0.00 | 0.00 | 34 | 1010.1 |
| 20260508145058 | 58 | 121 | 2.0 | 10.0 | 0.00 | 0.00 | 0.00 | 34 | 1010.1 |
| 20260508144559 | 58 | 255 | 2.0 | 10.0 | 0.00 | 0.00 | 0.00 | 35 | 1010.2 |
| 20260508144103 | 58 | 215 | 5.0 | 10.0 | 0.00 | 0.00 | 0.00 | 35 | 1010.2 |
| 20260508143600 | 59 | 301 | 1.0 | 7.0 | 0.00 | 0.00 | 0.00 | 38 | 1010.2 |
| 20260508143105 | 58 | 336 | 2.0 | 7.0 | 0.00 | 0.00 | 0.00 | 36 | 1010.2 |
| 20260508142558 | 58 | 220 | 3.0 | 7.0 | 0.00 | 0.00 | 0.00 | 38 | 1010.1 |
| 20260508142059 | 57 | 244 | 1.0 | 8.0 | 0.00 | 0.00 | 0.00 | 36 | 1010.1 |
| 20260508141601 | 57 | 241 | 3.0 | 8.0 | 0.00 | 0.00 | 0.00 | 39 | 1010.2 |
| 20260508141058 | 58 | 325 | 1.0 | 7.0 | 0.00 | 0.00 | 0.00 | 38 | 1010.2 |
| 20260508140559 | 57 | 188 | 3.0 | 8.0 | 0.00 | 0.00 | 0.00 | 37 | 1010.3 |
| 20260508140112 | 57 | 304 | 2.0 | 8.0 | 0.00 | 0.00 | 0.00 | 39 | 1010.3 |
| 20260508135600 | 57 | 331 | 2.0 | 5.0 | 0.00 | 0.00 | 0.00 | 36 | 1010.3 |
| 20260508135100 | 56 | 313 | 1.0 | 5.0 | 0.00 | 0.00 | 0.00 | 41 | 1010.5 |
| 20260508134633 | 56 | 250 | 2.0 | 7.0 | 0.00 | 0.00 | 0.00 | 42 | 1010.6 |
| 20260508134059 | 55 | 328 | 1.0 | 7.0 | 0.00 | 0.00 | 0.00 | 40 | 1010.6 |
| 20260508133559 | 56 | 282 | 2.0 | 5.0 | 0.00 | 0.00 | 0.00 | 42 | 1010.7 |
| 20260508133113 | 55 | 197 | 0.0 | 4.0 | 0.00 | 0.00 | 0.00 | 43 | 1010.7 |
| 20260508132600 | 55 | 0 | 1.0 | 7.0 | 0.00 | 0.00 | 0.00 | 43 | 1010.6 |
| 20260508132058 | 55 | 202 | 1.0 | 7.0 | 0.00 | 0.00 | 0.00 | 43 | 1010.6 |
| 20260508131609 | 54 | 231 | 1.0 | 4.0 | 0.00 | 0.00 | 0.00 | 43 | 1010.7 |
| 20260508131102 | 54 | 311 | 0.0 | 4.0 | 0.00 | 0.00 | 0.00 | 43 | 1010.6 |
| 20260508130559 | 53 | 257 | 2.0 | 4.0 | 0.00 | 0.00 | 0.00 | 46 | 1010.6 |
| 20260508130105 | 53 | 0 | 1.0 | 7.0 | 0.00 | 0.00 | 0.00 | 47 | 1010.6 |
| 20260508125558 | 52 | 248 | 3.0 | 7.0 | 0.00 | 0.00 | 0.00 | 47 | 1010.6 |
| 20260508125100 | 52 | 0 | 2.0 | 4.0 | 0.00 | 0.00 | 0.00 | 47 | 1010.6 |
| 20260508124604 | 52 | 231 | 1.0 | 8.0 | 0.00 | 0.00 | 0.00 | 48 | 1010.7 |
| 20260508124101 | 52 | 216 | 2.0 | 8.0 | 0.00 | 0.00 | 0.00 | 47 | 1010.7 |
| 20260508123558 | 52 | 0 | 1.0 | 6.0 | 0.00 | 0.00 | 0.00 | 50 | 1010.7 |
| 20260508123106 | 51 | 278 | 2.0 | 6.0 | 0.00 | 0.00 | 0.00 | 46 | 1010.6 |
| 20260508122559 | 51 | 269 | 2.0 | 6.0 | 0.00 | 0.00 | 0.00 | 47 | 1010.6 |
| 20260508122100 | 51 | 267 | 1.0 | 9.0 | 0.00 | 0.00 | 0.00 | 49 | 1010.6 |
| 20260508121606 | 51 | 279 | 3.0 | 9.0 | 0.00 | 0.00 | 0.00 | 48 | 1010.6 |
| 20260508121058 | 51 | 223 | 2.0 | 5.0 | 0.00 | 0.00 | 0.00 | 50 | 1010.5 |
| 20260508120600 | 51 | 238 | 1.0 | 7.0 | 0.00 | 0.00 | 0.00 | 51 | 1010.6 |
| 20260508115558 | 50 | 281 | 2.0 | 8.0 | 0.00 | 0.04 | 0.00 | 54 | 1010.6 |
| 20260508115059 | 50 | 0 | 2.0 | 5.0 | 0.00 | 0.04 | 0.00 | 55 | 1010.6 |
| 20260508114607 | 49 | 360 | 1.0 | 4.0 | 0.00 | 0.04 | 0.00 | 56 | 1010.7 |
| 20260508114057 | 48 | 266 | 1.0 | 5.0 | 0.00 | 0.04 | 0.00 | 58 | 1010.7 |
| 20260508113604 | 48 | 0 | 1.0 | 5.0 | 0.00 | 0.04 | 0.00 | 62 | 1010.8 |
| 20260508113107 | 47 | 281 | 0.0 | 4.0 | 0.00 | 0.04 | 0.00 | 62 | 1010.6 |
| 20260508112559 | 47 | 0 | 0.0 | 4.0 | 0.00 | 0.04 | 0.00 | 62 | 1010.5 |
| 20260508112058 | 46 | 234 | 1.0 | 4.0 | 0.00 | 0.04 | 0.00 | 65 | 1010.6 |
| 20260508111604 | 45 | 0 | 0.0 | 4.0 | 0.00 | 0.04 | 0.00 | 67 | 1010.4 |
| 20260508111100 | 45 | 0 | 0.0 | 4.0 | 0.00 | 0.04 | 0.00 | 69 | 1010.4 |
| 20260508110558 | 45 | 0 | 0.0 | 0.0 | 0.00 | 0.04 | 0.00 | 69 | 1010.5 |
| 20260508110105 | 44 | 0 | 0.0 | 0.0 | 0.00 | 0.04 | 0.00 | 72 | 1010.6 |
| 20260508105558 | 43 | 0 | 0.0 | 0.0 | 0.00 | 0.07 | 0.00 | 74 | 1010.4 |
| 20260508105100 | 42 | 0 | 0.0 | 0.0 | 0.00 | 0.07 | 0.00 | 74 | 1010.4 |
| 20260508104601 | 42 | 0 | 0.0 | 0.0 | 0.00 | 0.07 | 0.00 | 75 | 1010.2 |
| 20260508104059 | 41 | 0 | 0.0 | 0.0 | 0.00 | 0.07 | 0.00 | 75 | 1010.2 |
| 20260508103600 | 41 | 0 | 0.0 | 0.0 | 0.00 | 0.07 | 0.00 | 75 | 1010.2 |
| 20260508103100 | 41 | 0 | 0.0 | 0.0 | 0.00 | 0.07 | 0.00 | 75 | 1010.1 |
| 20260508102601 | 42 | 0 | 0.0 | 0.0 | 0.00 | 0.07 | 0.00 | 75 | 1010.1 |
| 20260508102058 | 41 | 0 | 0.0 | 0.0 | 0.00 | 0.07 | 0.00 | 75 | 1010.1 |
| 20260508101602 | 41 | 0 | 0.0 | 0.0 | 0.00 | 0.07 | 0.00 | 76 | 1010.1 |
| 20260508101100 | 41 | 0 | 0.0 | 0.0 | 0.00 | 0.07 | 0.00 | 76 | 1010.0 |
| 20260508100558 | 40 | 0 | 0.0 | 0.0 | 0.00 | 0.07 | 0.00 | 77 | 1010.1 |
| 20260508100058 | 40 | 0 | 0.0 | 0.0 | 0.00 | 0.07 | 0.00 | 77 | 1010.0 |
| 20260508095601 | 40 | 0 | 0.0 | 0.0 | 0.00 | 0.09 | 0.00 | 78 | 1010.0 |
| 20260508095101 | 40 | 0 | 0.0 | 0.0 | 0.00 | 0.09 | 0.00 | 78 | 1010.0 |
| 20260508094612 | 40 | 0 | 0.0 | 0.0 | 0.00 | 0.09 | 0.00 | 78 | 1009.7 |
| 20260508094100 | 40 | 0 | 0.0 | 0.0 | 0.00 | 0.09 | 0.00 | 78 | 1009.7 |
| 20260508093559 | 39 | 0 | 0.0 | 0.0 | 0.00 | 0.09 | 0.00 | 78 | 1009.8 |
| 20260508093105 | 39 | 0 | 0.0 | 0.0 | 0.00 | 0.09 | 0.00 | 78 | 1009.7 |
| 20260508092602 | 40 | 0 | 0.0 | 0.0 | 0.00 | 0.09 | 0.00 | 77 | 1009.6 |
| 20260508092103 | 40 | 0 | 0.0 | 0.0 | 0.00 | 0.09 | 0.00 | 76 | 1009.5 |
| 20260508091622 | 40 | 0 | 0.0 | 0.0 | 0.00 | 0.09 | 0.00 | 76 | 1009.6 |
| 20260508091058 | 40 | 0 | 0.0 | 0.0 | 0.00 | 0.09 | 0.00 | 76 | 1009.6 |
| 20260508090558 | 40 | 0 | 0.0 | 0.0 | 0.00 | 0.09 | 0.00 | 75 | 1009.7 |
| 20260508090112 | 40 | 0 | 0.0 | 0.0 | 0.00 | 0.09 | 0.00 | 76 | 1009.6 |
| 20260508085559 | 40 | 0 | 0.0 | 0.0 | 0.00 | 0.19 | 0.00 | 76 | 1009.6 |
| 20260508085100 | 40 | 0 | 0.0 | 0.0 | 0.00 | 0.19 | 0.00 | 76 | 1009.6 |
| 20260508084559 | 40 | 0 | 0.0 | 0.0 | 0.00 | 0.19 | 0.00 | 76 | 1009.6 |
| 20260508084104 | 39 | 0 | 0.0 | 0.0 | 0.00 | 0.19 | 0.00 | 77 | 1009.6 |
| 20260508083602 | 39 | 0 | 0.0 | 0.0 | 0.00 | 0.19 | 0.00 | 77 | 1009.5 |
| 20260508083101 | 39 | 0 | 0.0 | 0.0 | 0.00 | 0.19 | 0.00 | 77 | 1009.3 |
| 20260508082559 | 39 | 0 | 0.0 | 0.0 | 0.00 | 0.19 | 0.00 | 76 | 1009.2 |
| 20260508082101 | 39 | 0 | 0.0 | 0.0 | 0.00 | 0.19 | 0.00 | 76 | 1009.1 |
| 20260508081600 | 39 | 0 | 0.0 | 0.0 | 0.00 | 0.19 | 0.00 | 75 | 1009.0 |
| 20260508081058 | 39 | 0 | 0.0 | 0.0 | 0.00 | 0.19 | 0.00 | 74 | 1009.1 |
| 20260508080602 | 40 | 0 | 0.0 | 0.0 | 0.00 | 0.19 | 0.00 | 73 | 1009.0 |
| 20260508080101 | 40 | 0 | 0.0 | 0.0 | 0.00 | 0.19 | 0.00 | 73 | 1009.0 |
| 20260508075559 | 40 | 0 | 0.0 | 0.0 | 0.00 | 0.39 | 0.00 | 73 | 1009.0 |
| 20260508075102 | 40 | 0 | 0.0 | 0.0 | 0.00 | 0.39 | 0.00 | 72 | 1008.7 |
| 20260508074600 | 40 | 0 | 0.0 | 0.0 | 0.00 | 0.39 | 0.00 | 71 | 1008.5 |
| 20260508074101 | 41 | 0 | 0.0 | 0.0 | 0.00 | 0.39 | 0.00 | 71 | 1008.5 |
| 20260508073600 | 41 | 0 | 0.0 | 0.0 | 0.00 | 0.39 | 0.00 | 71 | 1008.5 |
| 20260508073100 | 41 | 0 | 0.0 | 0.0 | 0.00 | 0.39 | 0.00 | 70 | 1008.4 |
| 20260508072600 | 41 | 0 | 0.0 | 0.0 | 0.00 | 0.39 | 0.00 | 70 | 1008.3 |
| 20260508072101 | 42 | 0 | 0.0 | 0.0 | 0.00 | 0.39 | 0.00 | 69 | 1008.2 |
| 20260508071601 | 42 | 0 | 0.0 | 0.0 | 0.00 | 0.39 | 0.00 | 68 | 1008.2 |
| 20260508071102 | 42 | 0 | 0.0 | 0.0 | 0.00 | 0.39 | 0.00 | 69 | 1008.1 |
| 20260508070600 | 42 | 0 | 0.0 | 0.0 | 0.00 | 0.39 | 0.00 | 67 | 1008.1 |
| 20260508065557 | 43 | 0 | 0.0 | 0.0 | 0.00 | 0.39 | 0.00 | 66 | 1007.9 |
| 20260508065059 | 43 | 0 | 0.0 | 0.0 | 0.00 | 0.39 | 0.00 | 66 | 1008.0 |
| 20260508064559 | 43 | 0 | 0.0 | 0.0 | 0.00 | 0.39 | 0.00 | 65 | 1008.1 |
| 20260508064102 | 43 | 0 | 0.0 | 0.0 | 0.00 | 0.39 | 0.00 | 64 | 1008.1 |
| 20260508063602 | 44 | 0 | 0.0 | 0.0 | 0.00 | 0.39 | 0.00 | 64 | 1008.2 |
| 20260508063139 | 44 | 0 | 0.0 | 0.0 | 0.00 | 0.39 | 0.00 | 62 | 1008.1 |
| 20260508062603 | 44 | 0 | 0.0 | 0.0 | 0.00 | 0.39 | 0.00 | 62 | 1008.2 |
| 20260508062100 | 45 | 0 | 0.0 | 0.0 | 0.00 | 0.39 | 0.00 | 60 | 1008.1 |
| 20260508061558 | 45 | 0 | 0.0 | 1.0 | 0.00 | 0.39 | 0.00 | 61 | 1008.1 |
| 20260508061100 | 45 | 0 | 0.0 | 3.0 | 0.00 | 0.39 | 0.00 | 60 | 1008.1 |
| 20260508060557 | 46 | 0 | 0.0 | 3.0 | 0.00 | 0.39 | 0.00 | 59 | 1008.1 |
| 20260508060100 | 46 | 0 | 0.0 | 6.0 | 0.00 | 0.39 | 0.00 | 56 | 1008.1 |
| 20260508055601 | 46 | 0 | 1.0 | 6.0 | 0.00 | 0.39 | 0.00 | 55 | 1008.1 |
| 20260508055058 | 47 | 0 | 0.0 | 3.0 | 0.00 | 0.39 | 0.00 | 58 | 1008.1 |
| 20260508054557 | 47 | 277 | 0.0 | 4.0 | 0.00 | 0.39 | 0.00 | 54 | 1008.1 |
| 20260508054100 | 47 | 0 | 0.0 | 4.0 | 0.00 | 0.39 | 0.00 | 53 | 1008.1 |
| 20260508053557 | 48 | 0 | 0.0 | 2.0 | 0.00 | 0.39 | 0.00 | 54 | 1008.1 |
| 20260508053102 | 48 | 269 | 0.0 | 5.0 | 0.00 | 0.39 | 0.00 | 51 | 1008.0 |
| 20260508052559 | 49 | 281 | 1.0 | 5.0 | 0.00 | 0.39 | 0.00 | 50 | 1008.0 |
| 20260508052057 | 49 | 258 | 1.0 | 5.0 | 0.00 | 0.39 | 0.00 | 49 | 1008.0 |
| 20260508051619 | 49 | 261 | 1.0 | 4.0 | 0.00 | 0.39 | 0.00 | 49 | 1008.0 |
| 20260508051057 | 49 | 0 | 1.0 | 4.0 | 0.00 | 0.39 | 0.00 | 50 | 1008.0 |
| 20260508050558 | 50 | 248 | 1.0 | 4.0 | 0.00 | 0.39 | 0.00 | 48 | 1008.0 |
| 20260508050058 | 50 | 221 | 0.0 | 7.0 | 0.00 | 0.39 | 0.00 | 49 | 1008.0 |
| 20260508045558 | 50 | 305 | 2.0 | 7.0 | 0.00 | 0.39 | 0.00 | 48 | 1008.2 |
| 20260508045058 | 50 | 0 | 1.0 | 4.0 | 0.00 | 0.39 | 0.00 | 48 | 1008.2 |
| 20260508044558 | 50 | 292 | 0.0 | 7.0 | 0.00 | 0.39 | 0.00 | 48 | 1008.1 |
| 20260508044057 | 50 | 300 | 2.0 | 7.0 | 0.00 | 0.39 | 0.00 | 48 | 1008.1 |
| 20260508043556 | 50 | 315 | 1.0 | 5.0 | 0.00 | 0.39 | 0.00 | 49 | 1008.2 |
| 20260508043057 | 50 | 285 | 2.0 | 5.0 | 0.00 | 0.39 | 0.00 | 48 | 1008.2 |
| 20260508042557 | 50 | 245 | 1.0 | 6.0 | 0.00 | 0.39 | 0.00 | 49 | 1008.2 |
| 20260508042056 | 50 | 0 | 1.0 | 6.0 | 0.00 | 0.39 | 0.00 | 48 | 1008.2 |
| 20260508041558 | 50 | 269 | 1.0 | 3.0 | 0.00 | 0.39 | 0.00 | 50 | 1008.4 |
| 20260508041056 | 50 | 0 | 0.0 | 3.0 | 0.00 | 0.39 | 0.00 | 48 | 1008.5 |
| 20260508040556 | 50 | 261 | 1.0 | 3.0 | 0.00 | 0.39 | 0.00 | 48 | 1008.3 |
| 20260508040057 | 50 | 337 | 1.0 | 4.0 | 0.00 | 0.39 | 0.00 | 49 | 1008.4 |
| 20260508035556 | 50 | 238 | 1.0 | 4.0 | 0.00 | 0.39 | 0.39 | 49 | 1008.5 |
| 20260508035057 | 50 | 42 | 1.0 | 4.0 | 0.00 | 0.39 | 0.39 | 49 | 1008.4 |
| 20260508034558 | 51 | 255 | 1.0 | 3.0 | 0.00 | 0.39 | 0.39 | 48 | 1008.4 |
| 20260508034056 | 50 | 242 | 1.0 | 3.0 | 0.00 | 0.39 | 0.39 | 49 | 1008.4 |
| 20260508033556 | 51 | 0 | 1.0 | 2.0 | 0.00 | 0.39 | 0.39 | 50 | 1008.4 |
| 20260508033058 | 51 | 0 | 1.0 | 3.0 | 0.00 | 0.39 | 0.39 | 51 | 1008.3 |
| 20260508032557 | 51 | 225 | 0.0 | 3.0 | 0.00 | 0.39 | 0.39 | 51 | 1008.4 |
| 20260508032056 | 51 | 233 | 0.0 | 3.0 | 0.00 | 0.39 | 0.39 | 50 | 1008.4 |
| 20260508031603 | 51 | 348 | 0.0 | 3.0 | 0.00 | 0.39 | 0.39 | 50 | 1008.4 |
| 20260508031057 | 51 | 232 | 0.0 | 3.0 | 0.00 | 0.39 | 0.39 | 49 | 1008.5 |
| 20260508030559 | 51 | 239 | 0.0 | 5.0 | 0.00 | 0.39 | 0.39 | 50 | 1008.5 |
| 20260508025603 | 51 | 275 | 1.0 | 5.0 | 0.00 | 0.39 | 0.39 | 50 | 1008.6 |
| 20260508025101 | 51 | 244 | 0.0 | 5.0 | 0.00 | 0.39 | 0.39 | 50 | 1008.6 |
| 20260508024604 | 51 | 228 | 1.0 | 5.0 | 0.00 | 0.39 | 0.39 | 51 | 1008.6 |
| 20260508024101 | 51 | 0 | 1.0 | 5.0 | 0.00 | 0.39 | 0.39 | 50 | 1008.5 |
| 20260508023558 | 50 | 260 | 1.0 | 3.0 | 0.00 | 0.39 | 0.39 | 53 | 1008.5 |
| 20260508023057 | 50 | 215 | 1.0 | 8.0 | 0.00 | 0.39 | 0.39 | 50 | 1008.5 |
| 20260508022558 | 50 | 0 | 0.0 | 8.0 | 0.00 | 0.39 | 0.39 | 51 | 1008.5 |
| 20260508022101 | 50 | 238 | 1.0 | 8.0 | 0.00 | 0.39 | 0.39 | 51 | 1008.4 |
| 20260508021600 | 50 | 246 | 1.0 | 2.0 | 0.00 | 0.39 | 0.39 | 53 | 1008.6 |
| 20260508021058 | 50 | 0 | 1.0 | 3.0 | 0.00 | 0.39 | 0.39 | 51 | 1008.6 |
| 20260508020600 | 50 | 230 | 0.0 | 3.0 | 0.00 | 0.39 | 0.39 | 51 | 1008.5 |
| 20260508020109 | 50 | 240 | 1.0 | 3.0 | 0.00 | 0.39 | 0.39 | 53 | 1008.6 |
| 20260508015600 | 51 | 0 | 0.0 | 4.0 | 0.00 | 0.39 | 0.39 | 52 | 1008.6 |
| 20260508015100 | 51 | 0 | 0.0 | 4.0 | 0.00 | 0.39 | 0.39 | 50 | 1008.5 |
| 20260508014600 | 51 | 0 | 0.0 | 3.0 | 0.00 | 0.39 | 0.39 | 50 | 1008.5 |
| 20260508014102 | 51 | 0 | 0.0 | 3.0 | 0.00 | 0.39 | 0.39 | 52 | 1008.5 |
| 20260508013603 | 52 | 0 | 0.0 | 2.0 | 0.00 | 0.39 | 0.39 | 48 | 1008.4 |
| 20260508013101 | 52 | 250 | 1.0 | 3.0 | 0.00 | 0.39 | 0.39 | 49 | 1008.3 |
| 20260508012604 | 52 | 229 | 1.0 | 3.0 | 0.00 | 0.39 | 0.39 | 50 | 1008.3 |
| 20260508012104 | 52 | 0 | 0.0 | 3.0 | 0.00 | 0.39 | 0.39 | 49 | 1008.3 |
| 20260508011558 | 52 | 228 | 1.0 | 3.0 | 0.00 | 0.39 | 0.39 | 47 | 1008.3 |
| 20260508011101 | 53 | 231 | 0.0 | 3.0 | 0.00 | 0.39 | 0.39 | 46 | 1008.1 |
| 20260508010601 | 53 | 231 | 1.0 | 5.0 | 0.00 | 0.39 | 0.39 | 48 | 1008.1 |
| 20260508010127 | 53 | 0 | 1.0 | 5.0 | 0.00 | 0.39 | 0.39 | 48 | 1007.9 |
| 20260508005602 | 53 | 224 | 1.0 | 7.0 | 0.00 | 0.39 | 0.39 | 45 | 1008.0 |
| 20260508005101 | 54 | 256 | 1.0 | 7.0 | 0.00 | 0.39 | 0.39 | 44 | 1007.8 |
| 20260508004557 | 54 | 0 | 1.0 | 4.0 | 0.00 | 0.39 | 0.39 | 44 | 1007.8 |
| 20260508004101 | 54 | 218 | 1.0 | 4.0 | 0.00 | 0.39 | 0.39 | 45 | 1007.8 |
| 20260508003601 | 54 | 0 | 0.0 | 4.0 | 0.00 | 0.39 | 0.39 | 46 | 1007.5 |
| 20260508003117 | 54 | 232 | 2.0 | 4.0 | 0.00 | 0.39 | 0.39 | 42 | 1007.2 |
| 20260508002604 | 54 | 0 | 1.0 | 4.0 | 0.00 | 0.39 | 0.39 | 43 | 1006.9 |
| 20260508002103 | 54 | 248 | 1.0 | 3.0 | 0.00 | 0.39 | 0.39 | 43 | 1007.0 |
| 20260508001603 | 55 | 0 | 0.0 | 3.0 | 0.00 | 0.39 | 0.39 | 46 | 1006.9 |
| 20260508001101 | 55 | 215 | 1.0 | 4.0 | 0.00 | 0.39 | 0.39 | 44 | 1006.9 |
| 20260508000601 | 56 | 0 | 1.0 | 4.0 | 0.00 | 0.39 | 0.39 | 41 | 1006.9 |
| 20260508000101 | 56 | 257 | 0.0 | 4.0 | 0.00 | 0.39 | 0.39 | 42 | 1006.8 |
| 20260507235601 | 56 | 299 | 1.0 | 3.0 | 0.00 | 0.42 | 0.39 | 39 | 1006.7 |
| 20260507235100 | 56 | 269 | 0.0 | 3.0 | 0.00 | 0.42 | 0.39 | 42 | 1006.8 |
| 20260507234600 | 57 | 0 | 1.0 | 8.0 | 0.00 | 0.42 | 0.39 | 38 | 1006.6 |
| 20260507234100 | 57 | 294 | 1.0 | 8.0 | 0.00 | 0.42 | 0.39 | 37 | 1006.6 |
| 20260507233601 | 58 | 288 | 2.0 | 8.0 | 0.00 | 0.42 | 0.39 | 36 | 1006.6 |
| 20260507233104 | 58 | 267 | 1.0 | 12.0 | 0.00 | 0.42 | 0.39 | 36 | 1006.5 |
| 20260507232601 | 58 | 272 | 4.0 | 12.0 | 0.00 | 0.42 | 0.39 | 36 | 1006.5 |
| 20260507232100 | 58 | 296 | 3.0 | 11.0 | 0.00 | 0.42 | 0.39 | 35 | 1006.4 |
| 20260507231601 | 59 | 225 | 3.0 | 8.0 | 0.00 | 0.42 | 0.39 | 35 | 1006.4 |
| 20260507231101 | 59 | 237 | 2.0 | 8.0 | 0.00 | 0.42 | 0.39 | 34 | 1006.3 |
| 20260507230603 | 59 | 256 | 1.0 | 10.0 | 0.00 | 0.42 | 0.39 | 35 | 1006.4 |
| 20260507230113 | 59 | 192 | 2.0 | 10.0 | 0.00 | 0.42 | 0.39 | 34 | 1006.2 |
| 20260507225601 | 60 | 246 | 2.0 | 9.0 | 0.00 | 0.45 | 0.39 | 33 | 1006.2 |
| 20260507225101 | 60 | 200 | 4.0 | 9.0 | 0.00 | 0.45 | 0.39 | 32 | 1006.2 |
| 20260507224600 | 60 | 223 | 2.0 | 9.0 | 0.00 | 0.45 | 0.39 | 33 | 1006.1 |
| 20260507224104 | 60 | 309 | 2.0 | 9.0 | 0.00 | 0.45 | 0.39 | 34 | 1006.0 |
| 20260507223601 | 61 | 263 | 3.0 | 13.0 | 0.00 | 0.45 | 0.39 | 32 | 1005.9 |
| 20260507223210 | 61 | 294 | 4.0 | 13.0 | 0.00 | 0.45 | 0.39 | 33 | 1005.8 |
| 20260507222600 | 61 | 229 | 3.0 | 11.0 | 0.00 | 0.45 | 0.39 | 32 | 1005.7 |
| 20260507222100 | 61 | 263 | 4.0 | 14.0 | 0.00 | 0.45 | 0.39 | 32 | 1005.7 |
| 20260507221559 | 62 | 252 | 5.0 | 14.0 | 0.00 | 0.45 | 0.39 | 30 | 1005.7 |
| 20260507221100 | 62 | 263 | 4.0 | 11.0 | 0.00 | 0.45 | 0.39 | 33 | 1005.7 |
| 20260507220601 | 62 | 251 | 5.0 | 10.0 | 0.00 | 0.45 | 0.39 | 32 | 1005.6 |
| 20260507220058 | 62 | 288 | 3.0 | 10.0 | 0.00 | 0.45 | 0.39 | 33 | 1005.6 |
| 20260507215601 | 62 | 309 | 1.0 | 8.0 | 0.00 | 0.46 | 0.39 | 33 | 1005.5 |
| 20260507215103 | 62 | 288 | 3.0 | 8.0 | 0.00 | 0.46 | 0.39 | 32 | 1005.6 |
| 20260507214611 | 62 | 248 | 3.0 | 8.0 | 0.00 | 0.46 | 0.39 | 32 | 1005.6 |
| 20260507214102 | 62 | 300 | 3.0 | 8.0 | 0.00 | 0.46 | 0.39 | 32 | 1005.5 |
| 20260507213602 | 62 | 338 | 1.0 | 8.0 | 0.00 | 0.46 | 0.39 | 31 | 1005.3 |
| 20260507213149 | 62 | 223 | 3.0 | 11.0 | 0.00 | 0.46 | 0.39 | 31 | 1005.4 |
| 20260507212601 | 63 | 260 | 4.0 | 11.0 | 0.00 | 0.46 | 0.39 | 31 | 1005.3 |
| 20260507212101 | 63 | 210 | 3.0 | 11.0 | 0.00 | 0.46 | 0.39 | 32 | 1005.2 |
| 20260507211600 | 63 | 300 | 2.0 | 7.0 | 0.00 | 0.46 | 0.39 | 32 | 1005.2 |
| 20260507211100 | 63 | 199 | 1.0 | 13.0 | 0.00 | 0.46 | 0.39 | 33 | 1005.2 |
| 20260507210600 | 63 | 272 | 3.0 | 13.0 | 0.00 | 0.46 | 0.39 | 33 | 1005.3 |
| 20260507210105 | 64 | 271 | 5.0 | 13.0 | 0.00 | 0.46 | 0.39 | 32 | 1005.1 |
| 20260507205601 | 64 | 242 | 3.0 | 9.0 | 0.00 | 0.47 | 0.39 | 32 | 1004.9 |
| 20260507205100 | 64 | 344 | 2.0 | 8.0 | 0.00 | 0.47 | 0.39 | 33 | 1005.0 |
| 20260507204558 | 64 | 203 | 2.0 | 8.0 | 0.00 | 0.47 | 0.39 | 33 | 1004.9 |
| 20260507204104 | 64 | 0 | 4.0 | 10.0 | 0.00 | 0.47 | 0.39 | 33 | 1005.0 |
| 20260507203601 | 64 | 298 | 3.0 | 10.0 | 0.00 | 0.47 | 0.39 | 31 | 1004.9 |
| 20260507203101 | 64 | 320 | 3.0 | 13.0 | 0.00 | 0.47 | 0.39 | 31 | 1005.0 |
| 20260507202559 | 64 | 342 | 2.0 | 13.0 | 0.00 | 0.47 | 0.39 | 31 | 1005.0 |
| 20260507202059 | 65 | 284 | 5.0 | 13.0 | 0.00 | 0.47 | 0.39 | 29 | 1005.0 |
| 20260507201620 | 66 | 229 | 1.0 | 7.0 | 0.00 | 0.47 | 0.39 | 30 | 1004.9 |
| 20260507201057 | 65 | 301 | 3.0 | 7.0 | 0.00 | 0.47 | 0.39 | 31 | 1005.0 |
| 20260507200556 | 65 | 214 | 3.0 | 13.0 | 0.00 | 0.47 | 0.39 | 30 | 1005.1 |
| 20260507200109 | 65 | 286 | 3.0 | 13.0 | 0.00 | 0.47 | 0.39 | 31 | 1005.0 |
| 20260507195558 | 65 | 302 | 2.0 | 8.0 | 0.00 | 0.50 | 0.39 | 30 | 1005.1 |
| 20260507195057 | 65 | 54 | 3.0 | 8.0 | 0.00 | 0.50 | 0.39 | 32 | 1005.1 |
| 20260507194557 | 65 | 234 | 4.0 | 9.0 | 0.00 | 0.50 | 0.39 | 30 | 1005.2 |
| 20260507194057 | 65 | 194 | 3.0 | 10.0 | 0.00 | 0.50 | 0.39 | 30 | 1005.2 |
| 20260507193557 | 65 | 252 | 4.0 | 10.0 | 0.00 | 0.50 | 0.39 | 34 | 1005.3 |
| 20260507193058 | 65 | 213 | 4.0 | 9.0 | 0.00 | 0.50 | 0.39 | 32 | 1005.3 |
| 20260507192559 | 65 | 235 | 3.0 | 9.0 | 0.00 | 0.50 | 0.39 | 32 | 1005.4 |
| 20260507192056 | 64 | 244 | 3.0 | 11.0 | 0.00 | 0.50 | 0.39 | 33 | 1005.4 |
| 20260507191557 | 64 | 266 | 5.0 | 11.0 | 0.00 | 0.50 | 0.39 | 32 | 1005.7 |
| 20260507191108 | 64 | 333 | 5.0 | 11.0 | 0.00 | 0.50 | 0.39 | 32 | 1005.8 |
| 20260507190601 | 65 | 249 | 4.0 | 10.0 | 0.00 | 0.50 | 0.39 | 34 | 1005.8 |